Flag Weather past 2 weeks in Bielsko-Biała, Poland

Now
29 °F

Fog.


Feels Like: 22 °F
Forecast: 26 / 33 °F
Wind: 6 mph from Northeast

Location: Katowice

Current Time: Nov 29, 2014 at 12:12:18 AM

Latest Report: Nov 28, 2014 at 11:00 PM


Visibility: 4 mi

Pressure: 30.27 "Hg

Humidity: 86%

Dew point: 25 °F

Location of Bielsko-BiałaLocation

Historic Weather in Bielsko-Biała — Graph

°F

Bielsko-Biała temperature yesterday

Maximum temperature yesterday: 32 °F (at 12:00 AM)
Minimum temperature yesterday: 29 °F (at 9:00 PM)
Average temperature yesterday: 31 °F

Past Weeks' High & Low Weather Summary

 TemperatureHumidityPressure
High49 °F (Nov 15, 2:00 PM)99% (Nov 17, 12:00 PM)30.47 "Hg (Nov 17, 12:00 PM)
Low29 °F (Nov 28, 9:00 PM)56% (Nov 26, 2:00 PM)29.77 "Hg (Nov 16, 12:00 PM)
Average40 °F90%30.16 "Hg
* Reported Nov 13 10:00 PM — Nov 28 10:00 PM, Bielsko-Biała, Weather by CustomWeather, © 2014

Note: Actual official high and low records may vary slightly from our data, if they occured in-between our weather recording intervals... More about our weather records

Advertising

Bielsko-Biała weather history for previous 24 hours

 ConditionsComfort  
Time TempWeatherWind HumidityBarometerVisibility
10:00 PM
Nov 28
29 °FFog.6 mph86%30.27 "Hg4 mi
9:00 PM29 °FFog.6 mph87%30.27 "Hg4 mi
8:00 PM29 °FFog.6 mph87%30.25 "Hg3 mi
7:00 PM30 °FFog.6 mph86%30.24 "Hg3 mi
6:00 PM30 °FFog.5 mph86%30.23 "Hg3 mi
5:00 PM30 °FFog.6 mph86%30.22 "Hg3 mi
4:00 PM30 °FFog.5 mph85%30.21 "Hg3 mi
3:00 PM31 °FFog.6 mph83%30.20 "Hg4 mi
2:00 PM31 °FFog.6 mph81%30.19 "Hg5 mi
1:00 PM31 °FFog.5 mph82%30.19 "Hg5 mi
12:00 PM31 °FFog.6 mph84%30.19 "Hg5 mi
11:00 AM31 °FFog.6 mph84%30.19 "Hg5 mi
10:00 AM31 °FFog.5 mph85%30.19 "Hg5 mi
9:00 AM31 °FFog.5 mph84%30.19 "Hg5 mi
8:00 AM31 °FFog.5 mph85%30.18 "Hg5 mi
7:00 AM31 °FFog.3 mph85%30.16 "Hg4 mi
6:00 AM31 °FFog.3 mph84%30.16 "Hg5 mi
5:00 AM31 °FFog.3 mph84%30.16 "Hg5 mi
4:00 AM31 °FFog.5 mph84%30.15 "Hg5 mi
3:00 AM31 °FFog.3 mph85%30.14 "Hg5 mi
2:00 AM31 °FFog.5 mph87%30.15 "Hg5 mi
1:00 AM31 °FFog.3 mph87%30.15 "Hg4 mi
12:00 AM32 °FFog.3 mph87%30.15 "Hg5 mi
Weather by CustomWeather, © 2014

See weather overviewHow to use our weather pages